Overview Statistics Trail Chart Weather Telemetry Raw packets
 

This is the latest recevied weather packets stored in our database for station/object JA0BES-13. If no packets are shown the sender has not sent any weather packets the latest 10 day(s).

<< 18 19 20 21 22 23 24 >>
Time Temp. Humidity Pressure Rain* Wind** Luminosity Snow
1788229588 31.11° C 87% 1013.6 hPa 0 mm - - -
1788228988 31.11° C 86% 1013.7 hPa 0 mm - - -
1788228387 31.11° C 90% 1013.8 hPa 0 mm - - -
1788227787 30.56° C 90% 1013.9 hPa 0 mm - - -
1788227187 30.56° C 90% 1014.1 hPa 0 mm - - -
1788226587 30.56° C 93% 1014.3 hPa 0 mm - - -
1788225986 30° C 94% 1014.4 hPa 0 mm - - -
1788225386 29.44° C 95% 1014.3 hPa 0 mm - - -
1788224785 29.44° C 98% 1014.4 hPa 0 mm - - -
1788224185 28.89° C 99% 1014.3 hPa 0 mm - - -
1788223584 28.33° C 100% 1014.6 hPa 0 mm - - -
1788222985 28.33° C 100% 1014.6 hPa 0 mm - - -
1788222384 27.78° C 100% 1014.8 hPa 0 mm - - -
1788221784 27.22° C 100% 1014.7 hPa 0 mm - - -
1788221183 27.22° C 100% 1015.2 hPa 0 mm - - -
1788220583 27.22° C 100% 1015.1 hPa 0 mm - - -
1788218782 26.11° C 100% 1015 hPa 0 mm - - -
1788218182 25.56° C 100% 1015 hPa 0 mm - - -
1788217581 25° C 100% 1015.2 hPa 0 mm - - -
1788210387 23.33° C 100% 1015 hPa 3.56 mm - - -
1788183361 23.89° C 100% 1014.5 hPa 3.56 mm - - -
1788180359 24.44° C 100% 1014.4 hPa 3.56 mm - - -
1788179759 24.44° C 100% 1014.3 hPa 3.56 mm - - -
1788179159 23.89° C 100% 1014.3 hPa 3.56 mm - - -
1788178558 24.44° C 100% 1014.3 hPa 3.56 mm - - -

* Rain since midnight (hover to see other rain measurements)
** Current wind speed in m/s (hover to see current wind gust speed)